#�ϑ�����,���ϕ���,���ϕ���,�ő啗��,�ő啗����������,�ő�u�ԕ���,�ő�u�ԕ�����������
#(�N����),(m/s)   ,(16����),(m/s)   ,(16����)        ,(m/s)       ,(16����)            
2012/1/8 0:01,0.3,16,0.3,2,0.4,16
2012/1/8 0:02,0.2,14,0.3,2,0.5,10
2012/1/8 0:03,0.3,13,0.3,2,0.5,10
2012/1/8 0:04,0.3,13,0.3,2,0.1,13
2012/1/8 0:05,0.2,12,0.3,2,0.1,13
2012/1/8 0:06,0.2,13,0.2,2,0.5,15
2012/1/8 0:07,0.1,14,0.2,2,0.5,15
2012/1/8 0:08,0.1,14,0.1,2,0,14
2012/1/8 0:09,0.1,13,0.1,1,0,12
2012/1/8 0:10,0.1,13,0.1,1,0,12
2012/1/8 0:11,0.1,12,0.1,16,0.8,6
2012/1/8 7:59,0.8,16,0.8,16,0.9,2
2012/1/8 8:00,0.6,1,0.8,16,0.9,1
2012/1/8 8:01,0.5,1,0.6,16,0.9,1
2012/1/8 8:02,0.4,1,0.5,16,0.9,1
2012/1/8 8:03,0.3,1,0.4,16,0.3,16
2012/1/8 8:04,0.2,1,0.3,16,0,2
2012/1/8 8:05,0.2,16,0.2,16,0,13
2012/1/8 8:06,0.2,16,0.2,16,0,12
2012/1/8 8:07,0.2,16,0.2,16,0.6,8
2012/1/8 8:08,0.2,16,0.2,16,0.4,7
2012/1/8 8:09,0.1,1,0.2,16,0.4,4
2012/1/8 8:10,0.1,1,0.1,1,0.3,4
2012/1/8 8:11,0.1,1,0.1,1,0.5,4
2012/1/8 8:12,0.1,2,0.1,1,0.8,4
2012/1/8 8:13,0.1,2,0.1,1,0.1,16
2012/1/8 8:14,0.1,2,0.1,1,0.4,16
2012/1/8 8:15,0.1,2,0.1,16,0.3,2
2012/1/8 8:16,0.1,2,0.1,16,0.1,14
2012/1/8 8:17,0.1,2,0.1,16,0,15
2012/1/8 8:18,0.1,2,0.1,16,0,15
2012/1/8 8:19,0.1,1,0.1,1,0,16
2012/1/8 8:20,0.1,1,0.1,1,0.3,4
2012/1/8 8:21,0.1,1,0.1,1,0.4,5
2012/1/8 8:22,0,1,0.1,2,0.1,3
2012/1/8 8:23,0.1,1,0.1,2,0.4,4
2012/1/8 8:24,0.1,2,0.1,2,0.9,6
2012/1/8 8:25,0.2,2,0.2,2,0.9,7
2012/1/8 8:26,0.2,3,0.2,2,1,7
2012/1/8 8:27,0.2,4,0.2,2,0.1,7
2012/1/8 8:28,0.2,5,0.2,2,0.4,9
2012/1/8 8:29,0.2,6,0.2,2,0.4,12
2012/1/8 8:30,0.2,6,0.2,2,0.5,9
2012/1/8 8:31,0.2,7,0.2,2,0.5,15
2012/1/8 8:32,0.2,8,0.2,2,0.5,9
2012/1/8 8:33,0.3,9,0.3,8,0.5,11
2012/1/8 8:34,0.2,10,0.3,8,0.3,13
2012/1/8 8:35,0.2,10,0.2,8,0.4,10
2012/1/8 8:36,0.1,10,0.2,8,0.3,9
2012/1/8 8:37,0.1,10,0.1,8,0,9
2012/1/8 8:38,0.1,10,0.1,8,0.1,10
2012/1/8 8:39,0.1,10,0.1,8,0.8,8
2012/1/8 8:40,0.2,10,0.2,8,1.1,9
2012/1/8 8:41,0.2,9,0.2,8,1,9
2012/1/8 8:42,0.1,9,0.2,8,0.1,9
2012/1/8 8:43,0.1,9,0.1,9,0.1,3
2012/1/8 8:44,0.1,8,0.1,10,0.1,3
2012/1/8 8:45,0.1,8,0.1,10,0,16
2012/1/8 8:46,0.1,8,0.1,10,0.3,14
2012/1/8 8:47,0.1,9,0.1,10,0.1,13
2012/1/8 8:48,0.1,12,0.1,10,0.8,13
2012/1/8 8:49,0.2,13,0.2,10,0.8,13
2012/1/8 8:50,0.1,14,0.2,10,0.5,12
2012/1/8 8:51,0.1,13,0.1,9,0.5,10
2012/1/8 8:52,0.2,13,0.2,13,0.5,10
2012/1/8 8:53,0.2,12,0.2,13,0.1,10
2012/1/8 8:54,0.2,12,0.2,13,0.1,11
2012/1/8 8:55,0.2,12,0.2,13,0,11
2012/1/8 8:56,0.2,12,0.2,13,0.1,1
2012/1/8 8:57,0.2,12,0.2,13,0,2
2012/1/8 8:58,0.1,12,0.2,13,0,2
2012/1/8 8:59,0.1,11,0.1,13,0,4
2012/1/8 9:00,0.1,11,0.1,13,0,5
2012/1/8 9:01,0,2,0.1,13,0,3
2012/1/8 9:02,0,3,0,13,0.4,7
2012/1/8 9:03,0.1,4,0.1,12,0.9,8
2012/1/8 9:04,0.1,4,0.1,12,0.4,3
2012/1/8 9:05,0.1,4,0.1,12,1.3,9
2012/1/8 9:06,0.2,5,0.2,12,1.3,9
2012/1/8 9:07,0.2,6,0.2,12,0.6,8
2012/1/8 9:08,0.2,7,0.2,5,0.8,9
2012/1/8 9:09,0.2,8,0.2,5,0.6,9
2012/1/8 9:10,0.2,8,0.2,5,0.3,7
2012/1/8 9:11,0.2,8,0.2,5,0.4,5
2012/1/8 9:12,0.2,8,0.2,5,0.5,9
2012/1/8 9:13,0.2,8,0.2,5,0.5,9
2012/1/8 9:14,0.2,9,0.2,5,0.4,12
2012/1/8 9:15,0.2,9,0.3,9,0.4,12
2012/1/8 9:16,0.2,10,0.2,9,0.6,13
2012/1/8 9:17,0.2,10,0.2,9,0.8,11
2012/1/8 9:18,0.2,11,0.2,9,0.4,13
2012/1/8 9:19,0.2,12,0.2,9,0.1,1
2012/1/8 9:20,0.2,13,0.2,9,0.1,2
2012/1/8 9:21,0.2,13,0.2,9,0,2
2012/1/8 9:22,0.2,13,0.2,9,0.6,9
2012/1/8 9:23,0.1,14,0.2,9,0.1,16
2012/1/8 9:24,0.1,14,0.1,9,0.1,6
2012/1/8 9:25,0.1,15,0.1,9,0.8,11
2012/1/8 9:26,0.1,16,0.1,10,0.8,12
2012/1/8 9:27,0.2,16,0.2,10,2.4,8
2012/1/8 9:28,0.3,3,0.3,3,2.5,8
2012/1/8 9:29,0.4,7,0.4,5,2.4,8
2012/1/8 9:30,0.5,8,0.5,7,1.4,8
2012/1/8 9:31,0.6,9,0.6,8,1.4,9
2012/1/8 9:32,0.7,9,0.7,9,1.1,8
2012/1/8 9:33,0.8,8,0.8,8,1.6,9
2012/1/8 9:34,0.8,8,0.8,8,1.3,8
2012/1/8 9:35,0.9,8,0.9,8,0.9,7
2012/1/8 9:36,0.9,8,0.9,8,1.1,8
2012/1/8 9:37,0.9,8,0.9,8,1.5,8
2012/1/8 9:38,0.8,8,0.9,8,1.5,8
2012/1/8 9:39,0.7,8,0.8,8,1,10
2012/1/8 9:40,0.6,8,0.6,8,0.9,8
2012/1/8 9:41,0.5,8,0.6,8,0.8,8
2012/1/8 9:42,0.5,8,0.5,8,0.9,6
2012/1/8 9:43,0.5,7,0.5,8,0.6,6
2012/1/8 9:44,0.4,7,0.5,8,0.6,5
2012/1/8 9:45,0.4,7,0.4,8,0.5,5
2012/1/8 9:46,0.4,6,0.4,8,0.6,2
2012/1/8 9:47,0.3,6,0.4,8,0.3,5
2012/1/8 9:48,0.3,6,0.3,8,0.8,7
2012/1/8 9:49,0.3,6,0.3,9,0.8,7
2012/1/8 9:50,0.3,5,0.4,8,0.5,6
2012/1/8 9:51,0.3,5,0.3,8,0.6,7
2012/1/8 9:52,0.3,5,0.3,8,0.8,5
2012/1/8 9:53,0.3,5,0.3,7,0.6,6
2012/1/8 9:54,0.3,6,0.3,7,0.3,6
2012/1/8 9:55,0.3,6,0.3,7,0.4,13
2012/1/8 9:56,0.2,6,0.3,6,0.4,6
2012/1/8 9:57,0.2,6,0.2,5,0.5,4
2012/1/8 9:58,0.3,7,0.3,5,0.8,7
2012/1/8 9:59,0.3,7,0.3,5,1.5,6
2012/1/8 10:00,0.4,7,0.4,7,1.3,9
2012/1/8 10:01,0.4,7,0.4,7,0.9,6
2012/1/8 10:02,0.4,7,0.4,7,1.8,8
2012/1/8 10:03,0.4,8,0.4,7,0.6,8
2012/1/8 10:04,0.4,8,0.4,7,1.5,9
2012/1/8 10:05,0.4,8,0.4,7,0.4,10
2012/1/8 10:06,0.4,8,0.5,7,0.5,3
2012/1/8 10:07,0.4,8,0.4,7,0.3,11
2012/1/8 10:08,0.5,8,0.5,7,1.5,8
2012/1/8 10:09,0.5,9,0.5,7,1.4,8
2012/1/8 10:10,0.4,8,0.5,7,0.9,9
2012/1/8 10:11,0.5,8,0.5,7,2,8
2012/1/8 10:12,0.5,9,0.5,7,1.8,8
2012/1/8 10:13,0.6,9,0.6,9,1.4,8
2012/1/8 10:14,0.5,9,0.6,9,0.4,10
2012/1/8 10:15,0.5,8,0.5,9,0.5,9
2012/1/8 10:16,0.5,8,0.5,9,0.4,1
2012/1/8 10:17,0.5,8,0.5,9,1.1,8
2012/1/8 10:18,0.5,9,0.5,9,0.5,8
2012/1/8 10:19,0.4,9,0.5,9,0.6,4
2012/1/8 10:20,0.4,9,0.4,9,1,10
2012/1/8 10:21,0.3,9,0.4,9,1.3,8
2012/1/8 10:22,0.3,8,0.3,9,0.9,6
2012/1/8 10:23,0.2,8,0.3,9,0.5,13
2012/1/8 10:24,0.2,9,0.2,9,0.4,14
2012/1/8 10:25,0.3,10,0.3,8,1.4,10
2012/1/8 10:26,0.4,9,0.4,8,2.4,8
2012/1/8 10:27,0.5,9,0.5,8,2.4,8
2012/1/8 10:28,0.5,9,0.5,9,1.8,8
2012/1/8 10:29,0.6,8,0.6,9,1.9,8
2012/1/8 10:30,0.7,8,0.7,8,2.1,7
2012/1/8 10:31,0.7,8,0.7,8,1.1,6
2012/1/8 10:32,0.9,8,0.9,8,2.9,7
2012/1/8 10:33,1,8,1,8,2.1,9
2012/1/8 10:34,1.1,8,1.1,8,2.5,8
2012/1/8 10:35,1.1,8,1.1,8,1.6,10
2012/1/8 10:36,1,8,1.1,8,1.9,9
2012/1/8 10:37,1,8,1,8,2,10
2012/1/8 10:38,1.1,8,1.1,8,1.9,8
2012/1/8 10:39,1,8,1.1,8,1.1,10
2012/1/8 10:40,1,8,1,8,2.5,10
2012/1/8 10:41,1,9,1,8,2.4,10
2012/1/8 10:42,1,9,1,8,2.7,8
2012/1/8 10:43,1,9,1,8,1.6,7
2012/1/8 10:44,1,9,1,8,3.5,8
2012/1/8 10:45,1,9,1,8,2.1,7
2012/1/8 10:46,1,9,1,8,2.6,8
2012/1/8 10:47,1.2,9,1.2,9,3.7,9
2012/1/8 10:48,1.2,9,1.2,9,2.1,8
2012/1/8 10:49,1.2,9,1.2,9,2.1,8
2012/1/8 10:50,1.2,9,1.2,9,1.8,8
2012/1/8 10:51,1.2,9,1.2,9,1.4,10
2012/1/8 10:52,1.1,9,1.2,9,1.3,10
2012/1/8 10:53,1,9,1.1,9,0.4,9
2012/1/8 10:54,0.9,9,1,9,0.1,9
2012/1/8 10:55,0.8,9,0.9,9,0,8
2012/1/8 10:56,0.7,8,0.8,9,0,5
2012/1/8 10:57,0.5,9,0.7,9,0.1,14
2012/1/8 10:58,0.4,8,0.5,9,0.8,2
2012/1/8 10:59,0.4,7,0.4,9,1.4,3
2012/1/8 11:00,0.3,6,0.3,9,0.5,1
2012/1/8 11:01,0.2,5,0.3,9,0.9,4
2012/1/8 11:02,0.3,5,0.3,9,2.6,7
2012/1/8 11:03,0.4,5,0.4,9,2,7
2012/1/8 11:04,0.6,5,0.6,9,2.2,7
2012/1/8 11:05,0.7,4,0.7,9,1.5,5
2012/1/8 11:06,0.8,5,0.8,5,1.1,6
2012/1/8 11:07,0.9,5,0.9,5,1.4,5
2012/1/8 11:08,0.9,5,0.9,5,1.3,3
2012/1/8 11:09,0.9,5,0.9,5,1.1,2
2012/1/8 11:10,1,5,1,5,1.8,4
2012/1/8 11:11,1,5,1,5,0.9,2
2012/1/8 11:12,1,4,1,5,1.4,3
2012/1/8 11:13,0.9,4,0.9,5,1.9,5
2012/1/8 11:14,0.9,4,1,5,2,5
2012/1/8 11:15,0.9,4,0.9,5,2.5,8
2012/1/8 11:16,1,4,1,5,2.7,8
2012/1/8 11:17,1,5,1,5,2,7
2012/1/8 11:18,1,5,1,5,1.8,8
2012/1/8 11:19,1,6,1,5,1,8
2012/1/8 11:20,0.9,7,1,5,1.3,7
2012/1/8 11:21,1,7,1,5,1.4,6
2012/1/8 11:22,1,7,1,4,0.9,6
2012/1/8 11:23,0.9,7,1,4,0.5,5
2012/1/8 11:24,0.7,7,0.8,4,0.4,4
2012/1/8 11:25,0.7,7,0.7,4,1,10
2012/1/8 11:26,0.6,8,0.7,4,1.5,11
2012/1/8 11:27,0.6,7,0.6,5,1.6,4
2012/1/8 11:28,0.6,7,0.6,6,1.8,4
2012/1/8 11:29,0.5,7,0.6,6,1.1,2
2012/1/8 11:30,0.5,7,0.5,7,1.5,9
2012/1/8 11:31,0.6,7,0.6,7,2.6,9
2012/1/8 11:32,0.7,7,0.7,7,2.6,8
2012/1/8 11:33,0.9,8,0.9,8,3,8
2012/1/8 11:34,0.9,8,0.9,8,2,7
2012/1/8 11:35,1,8,1,8,1.6,9
2012/1/8 11:36,1,8,1,8,2.6,9
2012/1/8 11:37,1.1,8,1.1,7,2.1,8
2012/1/8 11:38,1,8,1.1,7,0.8,3
2012/1/8 11:39,1,8,1,7,1,16
2012/1/8 11:40,1.1,8,1.1,7,1.6,8
2012/1/8 11:41,1,8,1.1,7,1.9,7
2012/1/8 11:42,0.8,8,1,7,0.6,9
2012/1/8 11:43,0.8,8,0.8,7,1.5,6
2012/1/8 11:44,0.8,7,0.8,7,1,4
2012/1/8 11:45,0.7,6,0.8,7,1.1,2
2012/1/8 11:46,0.6,6,0.7,7,0.3,11
2012/1/8 11:47,0.5,7,0.6,8,0.4,14
2012/1/8 11:48,0.6,7,0.6,8,2.9,8
